Temperature
16 16 17 17 17 17 17 17 17 16 16 16 16 16 16 16 16 16 16 16 16 15 15 15 15 15 15 15 15 15 15 15 15 15 15 15 15 15 15 15 15 15 15
17 17 16 17 17 17 17 17 16 16 16 16 16 16 16 16 16 16 15 15 15 15 15 15 15 15 15 15 15 15 15 15 15 15 15 15 15 15 15 15 15 15 15
17 16 16 16 16 16 16 16 16 16 16 16 16 16 16 16 16 15 15 15 15 15 15 15 15 15 15 15 15 15 14 14 14 14 14 14 14 14 14 15 15 14 14
17 16 16 16 16 16 16 16 16 16 16 16 16 16 16 15 15 15 15 15 15 15 15 15 15 15 15 15 15 15 14 14 14 14 14 14 14 14 14 14 14 14 14
16 16 16 16 16 16 16 16 16 16 16 15 15 15 15 15 15 15 15 15 15 15 15 15 15 15 15 15 15 14 14 14 14 14 14 14 14 14 14 14 14 14 14
16 16 16 16 16 16 16 16 16 16 15 15 15 15 15 15 15 15 15 15 15 15 15 15 15 15 15 15 15 14 14 14 14 14 14 14 14 14 14 14 14 14 14
16 15 15 16 15 15 15 15 15 15 15 15 15 15 15 15 15 15 15 15 15 15 15 15 15 15 15 15 14 14 14 14 14 14 14 14 14 14 14 14 14 14 14
15 15 15 15 15 15 15 15 15 15 15 15 15 15 15 15 15 15 15 15 15 15 15 15 15 15 14 14 14 14 14 14 14 14 13 13 13 13 14 14 14 14 14
15 15 15 15 15 15 15 15 15 15 15 15 15 15 15 15 15 15 15 15 14 14 14 14 14 14 14 14 14 14 14 14 14 13 13 13 13 13 13 13 13 13 13
14 14 14 14 14 14 14 14 14 14 15 15 14 14 14 14 14 14 14 14 14 14 14 14 14 14 14 14 14 14 13 13 13 13 13 13 13 13 13 13 13 13 13
14 14 14 14 14 14 14 14 14 14 14 14 14 14 14 14 14 14 14 14 14 14 14 14 14 14 14 13 13 13 13 13 13 13 13 13 13 13 13 13 13 13 13
13 13 13 13 13 14 14 14 14 14 14 14 14 14 14 14 14 14 14 14 14 14 14 14 14 14 13 13 13 13 13 13 13 13 13 12 12 12 12 13 13 13 12
13 13 13 13 13 13 14 14 14 14 14 14 14 14 14 14 14 14 14 14 14 14 14 14 13 13 13 13 13 13 13 13 13 12 12 12 12 12 12 12 12 12 12
12 12 12 13 13 13 13 13 13 13 13 13 13 14 14 14 13 13 13 13 13 13 13 13 13 13 13 13 13 13 13 12 12 12 12 12 12 12 12 12 12 12 12
12 12 12 12 13 13 13 13 13 13 13 13 13 13 13 13 13 13 13 13 13 13 13 13 13 13 13 13 13 12 12 12 12 12 12 12 11 11 11 11 11 11 11
12 12 12 12 12 13 13 13 13 13 13 13 13 13 13 13 13 13 13 13 13 13 13 13 13 13 13 13 13 12 12 12 12 12 11 11 11 11 11 11 11 11 11
12 12 12 12 12 12 12 12 12 13 13 13 13 13 13 13 13 13 13 13 13 13 13 13 13 13 13 12 12 12 12 12 11 11 11 11 11 11 11 11 11 11 10
12 12 12 12 12 12 12 12 12 12 12 12 12 13 12 12 12 12 12 12 12 12 12 12 12 12 12 12 12 12 12 11 11 11 11 11 10 10 10 10 10 10 10
12 12 12 12 12 12 12 12 12 12 12 12 12 12 12 12 12 12 12 12 12 12 12 12 12 12 12 12 12 11 11 11 11 11 10 10 10 10 10 10 10 10 10
11 11 11 11 11 11 11 11 11 11 11 12 12 12 12 12 12 12 12 12 12 12 12 12 12 12 11 11 11 11 11 11 11 10 10 10 10 10 10 10 9 9 9
11 11 11 11 11 11 11 11 11 11 11 11 11 12 11 12 11 11 11 11 11 11 11 11 11 11 11 11 11 11 10 10 10 10 10 9 9 9 9 9 9 9 9
11 11 11 11 11 11 11 11 11 11 11 11 11 11 11 11 11 11 11 11 11 11 11 11 11 11 10 10 10 10 9 9 9 9 9 9 9 9 9 9 9 8 8
11 10 10 10 10 10 10 10 10 10 10 10 11 11 11 11 10 10 10 10 10 10 10 10 10 10 10 9 9 9 9 8 8 9 9 9 8 8 8 8 8 8 8
11 10 10 10 10 10 10 10 10 10 10 10 10 10 10 10 10 10 10 10 10 10 10 10 10 10 9 9 9 8 8 8 7 7 8 8 8 8 8 8 8 8 7
10 10 10 10 10 10 10 10 10 10 10 10 10 10 10 10 10 10 9 9 9 9 9 9 9 9 9 9 8 8 8 8 7 7 7 8 8 8 7 7 7 7 7
10 10 10 10 10 10 10 9 9 9 9 9 9 9 9 9 9 9 9 9 9 9 9 9 9 9 8 8 8 8 8 7 7 7 6 7 7 7 7 7 7 7 6
Wind_Speed
6 10 14 13 12 12 12 11 11 11 11 10 10 10 10 10 10 10 9 9 9 9 8 8 9 9 9 9 9 9 8 8 7 7 6 6 6 6 7 7 7 7 7
9 12 14 14 13 12 12 12 11 11 10 10 10 10 10 9 9 9 8 8 8 8 8 8 8 7 7 7 7 7 7 7 6 5 5 4 4 4 5 6 6 5 6
10 12 13 13 13 13 13 12 11 11 10 10 10 9 9 9 9 8 8 8 8 7 7 7 6 6 6 6 6 5 6 5 4 4 3 2 2 3 4 5 5 5 5
10 12 12 12 13 13 13 12 12 11 10 9 9 9 8 8 8 8 7 7 7 7 6 6 6 6 5 5 4 4 4 5 4 4 2 1 1 3 3 4 4 4 4
8 9 11 12 13 12 12 13 12 11 10 9 9 8 8 8 8 7 7 7 7 6 6 6 5 5 5 4 3 3 4 5 4 4 3 2 2 3 3 3 3 3 3
7 8 10 12 12 11 11 12 12 11 10 9 9 8 8 8 8 7 6 6 6 6 5 5 4 4 4 4 3 3 4 4 4 4 3 3 2 2 3 3 4 3 2
7 7 9 11 11 10 10 11 12 11 10 9 8 8 7 7 7 7 6 6 5 5 4 4 3 3 3 3 3 3 4 5 5 3 2 2 1 2 3 3 3 3 2
8 8 9 10 10 9 9 9 11 11 10 9 8 7 7 7 7 6 6 6 5 4 4 3 3 2 2 2 2 3 4 4 3 2 1 1 1 1 2 2 2 1 1
8 7 7 8 8 9 8 8 9 11 10 9 8 8 7 7 6 6 5 5 4 4 3 3 2 2 1 1 2 2 3 3 3 2 1 1 0 1 1 1 1 1 1
6 5 5 6 6 6 7 7 7 9 10 9 8 8 7 6 6 5 5 4 4 3 3 2 2 1 1 2 2 2 3 3 3 2 1 0 1 1 1 1 1 1 1
6 5 5 5 5 5 6 7 7 8 8 8 7 7 6 5 5 4 4 4 3 2 2 2 2 2 2 3 2 2 3 3 3 3 1 1 1 1 1 1 0 1 1
6 5 4 4 4 5 5 6 6 5 6 6 5 6 5 4 4 3 3 3 3 3 2 2 2 2 3 3 2 2 3 3 3 2 1 1 1 1 1 1 0 0 1
7 5 4 4 4 4 3 5 5 5 5 5 5 5 5 5 4 4 3 3 3 3 3 3 3 4 3 2 2 2 2 3 3 2 2 1 1 1 1 1 1 1 1
5 5 5 4 3 4 4 4 4 4 4 4 5 5 6 4 4 3 3 3 3 3 3 3 3 4 4 3 3 2 2 2 2 2 2 2 2 1 2 2 2 2 2
5 5 5 4 4 4 4 3 4 4 4 5 5 5 6 4 2 3 2 3 3 3 3 3 3 3 3 3 3 3 3 3 2 2 3 3 3 3 3 3 3 3 3
6 5 5 5 4 4 3 2 3 4 5 6 5 5 6 5 4 3 2 2 3 3 3 2 2 2 2 3 3 3 3 2 2 3 3 3 4 4 3 3 3 3 3
5 5 5 5 5 5 4 3 4 5 6 5 5 5 6 5 5 4 2 2 2 3 3 3 3 3 2 2 2 2 2 2 2 3 3 3 3 4 4 4 4 4 3
5 5 4 4 5 4 4 4 4 5 6 5 5 5 6 6 6 5 2 1 2 3 3 2 2 2 2 2 2 2 1 1 2 2 3 3 3 3 4 4 5 5 4
5 5 5 4 5 4 4 4 5 5 5 5 5 5 5 6 6 5 3 2 3 3 2 1 2 1 1 2 1 1 1 1 0 2 3 4 4 4 4 4 5 5 5
4 4 4 5 5 4 3 3 3 3 3 4 4 4 5 5 6 5 3 3 3 2 2 2 2 2 1 1 1 2 2 1 1 1 2 3 4 4 4 4 4 4 5
4 4 4 4 4 4 3 2 2 1 1 1 2 4 4 5 5 5 3 2 2 2 2 2 1 2 2 2 2 2 3 2 2 1 1 2 3 4 4 4 3 3 4
5 4 4 4 4 4 3 2 1 1 0 1 1 2 3 4 4 3 3 2 2 2 2 2 2 1 1 2 2 1 2 3 2 2 1 1 1 3 3 3 2 2 3
4 4 4 4 4 4 3 3 3 3 2 1 1 1 1 2 3 3 3 2 2 2 1 1 2 2 1 1 1 2 1 1 2 2 1 1 1 1 1 1 1 1 1
5 4 4 4 4 4 4 4 4 2 1 2 1 1 0 1 2 2 3 2 2 1 1 1 1 1 2 1 0 1 1 2 1 2 3 2 2 1 2 2 2 1 1
5 5 4 4 4 3 3 4 4 2 1 1 1 1 1 1 1 2 2 2 1 1 1 1 1 1 1 2 1 1 1 1 1 1 3 3 3 3 2 2 2 1 1
4 4 4 4 4 3 3 3 4 4 3 2 1 1 1 1 1 1 2 2 2 2 2 2 2 2 2 2 1 1 1 1 1 1 2 3 4 4 3 2 2 2 2
Wind_Direction
165 162 153 146 140 135 131 126 124 122 118 113 109 108 107 105 105 107 107 108 106 103 100 96 95 92 87 86 87 86 85 82 83 81 76 72 79 86 88 85 86 81 90
156 156 151 149 145 140 135 130 127 125 122 117 113 111 109 108 107 108 111 111 107 104 101 99 94 92 88 85 85 83 81 78 75 72 69 69 78 95 99 95 94 91 98
145 147 150 148 146 143 138 134 131 127 124 122 118 115 114 112 111 109 107 109 108 106 105 102 98 93 88 84 83 82 76 68 62 58 59 67 82 106 113 110 103 94 93
139 142 147 150 147 145 141 138 134 130 127 126 123 120 118 117 112 109 106 108 109 107 106 101 97 92 87 82 77 75 68 57 50 47 51 66 97 117 116 112 106 102 95
129 136 144 145 146 145 145 142 138 134 132 128 126 122 119 114 111 109 107 106 110 107 102 96 93 88 84 80 73 65 54 48 43 49 54 64 80 101 102 117 117 104 95
124 127 140 141 141 142 144 145 142 139 136 130 125 123 121 117 112 111 110 109 110 110 106 100 98 94 86 77 65 48 38 32 49 58 64 70 66 89 103 117 111 99 98
123 123 135 135 137 138 141 148 146 143 138 134 130 126 126 122 117 112 115 113 111 111 110 107 103 100 90 75 52 40 35 42 64 70 60 52 60 97 107 118 116 101 81
127 121 127 129 127 132 139 148 150 144 139 136 133 128 126 127 124 118 118 118 118 116 116 114 110 105 93 62 36 32 35 47 52 48 33 360 2 122 118 132 135 115 77
119 117 114 118 127 128 128 135 150 146 141 135 131 125 122 126 127 120 118 121 124 122 115 111 105 96 63 30 22 29 33 30 40 5 313 301 256 168 120 123 126 113 71
117 116 113 114 113 117 125 128 130 141 139 135 131 125 122 123 128 124 119 121 120 116 109 100 87 57 21 6 9 28 25 35 42 17 353 313 130 146 118 102 102 79 59
120 124 118 108 107 108 121 127 123 132 136 131 128 125 123 125 128 128 121 118 111 101 91 76 51 39 23 9 15 25 39 45 49 26 15 343 133 149 136 123 119 20 4
137 139 135 122 119 116 127 128 124 123 128 129 124 124 123 127 132 130 122 110 95 76 59 50 32 24 26 20 22 37 47 53 48 19 3 306 203 147 118 103 114 4 357
150 144 141 139 133 123 118 130 122 114 113 110 109 117 114 109 104 100 93 77 70 60 41 29 37 28 33 39 36 39 49 53 47 23 14 50 86 96 84 51 54 55 21
144 145 146 140 129 120 120 124 125 120 113 103 109 115 108 98 89 90 89 82 68 56 42 36 32 28 35 39 52 53 54 51 49 42 27 46 53 59 53 37 26 21 15
146 146 147 141 136 123 112 117 121 122 118 114 109 109 111 108 105 98 92 81 63 57 53 41 37 37 37 34 41 54 50 47 51 55 40 49 54 61 58 47 32 21 21
155 154 146 142 138 124 117 118 124 122 116 106 103 108 113 108 103 102 98 77 55 50 54 53 43 55 50 47 36 43 50 56 57 59 58 61 63 61 51 39 27 16 8
161 152 145 147 134 126 122 118 113 117 114 102 101 102 105 106 104 103 105 86 47 51 58 56 46 47 52 47 23 19 42 47 58 69 77 80 65 47 41 34 24 11 9
151 140 145 146 128 121 122 116 110 110 109 106 102 97 98 100 99 93 92 84 53 59 55 68 54 48 42 33 8 343 3 34 61 79 85 83 72 49 37 35 31 20 17
150 143 143 130 123 118 108 100 101 98 99 106 101 95 98 96 99 94 83 65 69 68 56 54 57 71 49 15 351 348 346 342 94 84 84 82 77 68 55 40 36 32 28
143 137 132 131 123 113 98 85 78 83 84 98 104 98 96 99 101 95 87 62 72 81 58 52 65 56 65 357 356 6 343 332 93 97 99 82 73 69 60 47 41 30 27
132 132 132 136 133 125 118 111 102 101 93 95 108 105 95 99 102 100 90 68 71 89 81 73 86 72 38 16 43 14 359 13 57 68 75 80 65 57 52 46 44 37 26
150 157 150 151 140 137 136 132 130 131 136 154 110 100 106 101 102 110 107 103 87 87 75 69 81 93 48 39 76 78 3 347 354 7 27 70 56 52 45 35 35 39 33
165 175 175 165 154 146 133 110 88 68 54 57 90 74 79 104 99 109 115 112 106 106 118 112 120 122 124 359 66 127 123 263 309 319 330 7 2 354 341 3 10 359 1
188 178 167 166 162 159 147 141 139 140 159 211 183 176 173 139 133 132 126 123 117 118 133 144 118 136 146 172 333 59 153 166 183 305 308 306 310 290 286 312 313 309 304
179 171 165 157 162 164 156 154 155 152 162 141 119 144 181 205 190 183 165 154 161 170 176 151 115 135 159 177 197 193 88 86 146 190 284 304 306 278 269 265 259 277 292
169 166 162 157 168 170 165 164 172 174 165 144 153 176 204 225 218 209 197 188 197 195 198 189 175 181 186 184 193 189 174 177 194 191 247 286 294 286 284 261 238 241 260
Height
1525 1527 1529 1530 1531 1532 1533 1533 1534 1535 1535 1535 1536 1536 1537 1537 1538 1538 1538 1539 1539 1539 1539 1539 1540 1540 1540 1540 1540 1540 1540 1540 1540 1540 1540 1539 1539 1539 1539 1539 1539 1539 1539
1523 1526 1528 1529 1531 1531 1532 1533 1534 1534 1535 1535 1536 1536 1537 1537 1538 1538 1538 1538 1539 1539 1539 1539 1540 1540 1540 1540 1540 1540 1540 1540 1540 1540 1540 1540 1540 1540 1540 1540 1540 1539 1539
1523 1525 1527 1529 1530 1531 1532 1532 1533 1534 1535 1535 1536 1536 1537 1537 1537 1538 1538 1538 1538 1539 1539 1539 1539 1539 1540 1540 1540 1540 1540 1540 1540 1540 1540 1540 1540 1540 1540 1540 1540 1540 1540
1522 1524 1526 1528 1529 1530 1531 1532 1533 1533 1534 1535 1536 1536 1537 1537 1537 1538 1538 1538 1538 1538 1539 1539 1539 1539 1539 1539 1540 1540 1540 1540 1540 1540 1540 1540 1540 1540 1540 1540 1540 1540 1540
1522 1524 1525 1527 1529 1530 1531 1531 1532 1533 1534 1534 1535 1536 1536 1537 1537 1537 1538 1538 1538 1538 1538 1539 1539 1539 1539 1539 1539 1539 1539 1539 1539 1539 1540 1540 1540 1540 1540 1540 1540 1540 1540
1521 1523 1524 1526 1528 1529 1530 1531 1532 1532 1533 1534 1534 1535 1536 1536 1537 1537 1537 1537 1537 1538 1538 1538 1538 1538 1538 1538 1538 1539 1539 1539 1539 1539 1539 1540 1540 1540 1540 1540 1540 1540 1539
1519 1521 1524 1525 1527 1528 1529 1530 1531 1532 1533 1533 1534 1534 1535 1536 1536 1536 1537 1537 1537 1537 1537 1537 1537 1537 1537 1537 1537 1538 1538 1538 1538 1538 1538 1539 1539 1539 1539 1539 1539 1539 1539
1519 1521 1523 1525 1526 1527 1528 1529 1530 1531 1532 1533 1533 1534 1534 1535 1535 1535 1536 1536 1536 1536 1536 1536 1536 1536 1536 1536 1536 1536 1537 1537 1537 1537 1538 1538 1538 1538 1538 1538 1538 1538 1537
1519 1520 1522 1523 1525 1526 1527 1528 1529 1530 1531 1532 1532 1533 1533 1534 1534 1534 1535 1535 1535 1535 1535 1535 1535 1535 1535 1535 1535 1535 1535 1536 1536 1536 1536 1537 1537 1537 1537 1537 1537 1536 1536
1517 1519 1520 1521 1523 1524 1526 1527 1528 1529 1530 1531 1531 1532 1532 1533 1533 1533 1534 1534 1534 1534 1534 1534 1534 1534 1534 1534 1534 1534 1534 1535 1535 1535 1535 1535 1536 1535 1535 1535 1535 1535 1535
1516 1517 1519 1520 1521 1522 1524 1525 1526 1528 1529 1529 1530 1531 1531 1531 1532 1532 1532 1533 1533 1533 1533 1533 1533 1533 1533 1533 1533 1534 1534 1534 1534 1534 1534 1534 1534 1534 1534 1534 1534 1533 1533
1513 1515 1517 1518 1520 1521 1522 1524 1525 1526 1527 1528 1528 1529 1530 1530 1531 1531 1531 1531 1532 1532 1532 1532 1532 1532 1532 1532 1532 1533 1533 1532 1532 1532 1533 1533 1533 1533 1532 1532 1532 1532 1532
1510 1513 1515 1517 1519 1519 1521 1522 1523 1524 1525 1526 1527 1528 1528 1529 1529 1530 1530 1530 1530 1531 1531 1531 1531 1531 1531 1531 1531 1531 1531 1531 1531 1531 1531 1531 1531 1531 1531 1531 1530 1530 1530
1509 1511 1513 1515 1517 1518 1519 1520 1521 1523 1524 1525 1525 1526 1527 1527 1528 1528 1529 1529 1529 1529 1530 1530 1529 1530 1530 1530 1530 1530 1530 1530 1530 1530 1530 1529 1530 1530 1529 1529 1529 1528 1528
1509 1510 1512 1513 1515 1517 1518 1519 1520 1521 1522 1523 1524 1524 1525 1526 1526 1527 1527 1527 1528 1528 1528 1528 1528 1528 1528 1529 1528 1528 1528 1528 1528 1528 1528 1528 1528 1528 1528 1527 1527 1527 1526
1507 1509 1510 1512 1514 1515 1516 1517 1518 1520 1521 1522 1522 1523 1523 1524 1525 1525 1526 1526 1526 1526 1527 1527 1527 1527 1527 1527 1527 1527 1527 1527 1527 1527 1527 1527 1527 1527 1526 1526 1526 1525 1525
1506 1507 1508 1510 1512 1514 1515 1516 1517 1518 1519 1520 1521 1521 1521 1522 1523 1524 1524 1525 1525 1525 1525 1526 1526 1526 1525 1525 1525 1525 1525 1525 1525 1525 1525 1525 1525 1525 1525 1524 1524 1523 1523
1504 1505 1507 1509 1510 1512 1514 1515 1515 1516 1517 1518 1519 1519 1520 1521 1521 1522 1523 1523 1524 1524 1524 1524 1524 1524 1524 1523 1523 1524 1524 1524 1524 1524 1524 1524 1524 1523 1523 1523 1522 1522 1521
1503 1505 1506 1506 1508 1510 1512 1513 1514 1515 1515 1516 1517 1517 1518 1519 1520 1521 1521 1521 1522 1522 1522 1522 1522 1522 1522 1522 1522 1522 1522 1522 1522 1522 1522 1522 1522 1522 1521 1521 1520 1520 1519
1503 1504 1504 1506 1507 1509 1510 1511 1512 1513 1514 1515 1515 1516 1516 1517 1518 1519 1519 1520 1520 1520 1520 1520 1520 1520 1520 1520 1520 1520 1520 1520 1520 1520 1520 1520 1520 1520 1519 1519 1518 1518 1517
1501 1502 1503 1504 1505 1507 1508 1509 1511 1511 1512 1513 1513 1514 1514 1515 1516 1517 1517 1518 1518 1518 1518 1518 1518 1518 1518 1518 1518 1518 1518 1518 1518 1518 1519 1518 1518 1518 1517 1517 1516 1515 1515
1500 1502 1502 1503 1504 1505 1507 1509 1509 1510 1511 1511 1512 1512 1513 1513 1514 1515 1515 1516 1516 1516 1516 1516 1516 1516 1516 1516 1516 1516 1516 1517 1517 1517 1517 1516 1516 1516 1515 1514 1514 1513 1512
1499 1500 1501 1503 1503 1505 1506 1508 1508 1509 1509 1509 1510 1510 1511 1511 1512 1513 1514 1514 1514 1514 1514 1514 1514 1514 1514 1514 1514 1515 1514 1514 1514 1514 1514 1514 1514 1513 1513 1512 1511 1510 1509
1498 1499 1501 1502 1503 1504 1505 1506 1506 1507 1507 1508 1508 1508 1509 1510 1511 1511 1512 1512 1512 1512 1512 1512 1512 1512 1513 1512 1512 1512 1513 1512 1512 1511 1512 1512 1511 1511 1510 1509 1508 1507 1507
1497 1498 1500 1501 1501 1503 1503 1504 1505 1506 1506 1506 1506 1506 1508 1508 1509 1509 1510 1510 1510 1510 1510 1510 1510 1510 1510 1510 1510 1510 1510 1510 1509 1509 1508 1508 1508 1508 1507 1506 1505 1504 1504
1496 1497 1498 1499 1500 1501 1501 1502 1503 1504 1504 1505 1504 1505 1505 1506 1507 1507 1507 1508 1508 1508 1508 1507 1507 1508 1508 1508 1508 1508 1507 1507 1507 1506 1506 1504 1504 1504 1503 1503 1502 1501 1501